Location: Newark
(34.0111°N, 88.4892°W)
Time: 21:32:49
(UTC+00:00)

LightSail 2 - Pass Details

Date: 05 March 2020
Orbit: 692 x 726 km, 24.0° (Epoch: 28 March)

Event Time Altitude Azimuth Distance (km) Brightness Sun altitude
Rises 02:17:33 0° 232° (SW) 3,046 8.9 -30.5°
Reaches altitude 10° 02:20:29 10° 216° (SW) 2,129 7.8 -31.1°
Enters shadow 02:21:01 12° 212° (SSW) 1,991 7.6 -31.2°
